Cambridge, MD

5:30 PM EST on December 03, 2016 (GMT -0500)
Cambridge-Dorchester

Weather History for KCGE - May, 2013

Change the Weather History Date:

Friday, May 3, 2013

  Actual Average (KESN) Record (KESN)
Temperature  
Mean Temperature 50 °F -  
Max Temperature 59 °F 73 °F 89 °F (1965)
Min Temperature 42 °F 51 °F 37 °F (1960)
Degree Days  
Heating Degree Days 14    
Moisture  
Dew Point 41 °F    
Average Humidity 69    
Maximum Humidity 93    
Minimum Humidity 42    
Precipitation  
Precipitation 0.00 in - - ()
Sea Level Pressure  
Sea Level Pressure 30.34 in    
Wind  
Wind Speed 5 mph (ENE)    
Max Wind Speed 18 mph    
Max Gust Speed 26 mph    
Visibility 10 miles    
Events      
Averages and records for this station are not official NWS values.
T = Trace of Precipitation, MM = Missing Value Source: NWS Daily Summary

Daily Weather History Graph

Daily Weather History Graph

Search for Another Location

Airport or City:

Trip Planner

Search our weather history database for the weather conditions in past years. The results will help you decide how hot, cold, wet, or windy it might be!

Date:

Astronomy

May. 03, 2013 Rise Set
Actual Time 6:04 AM EDT 7:58 PM EDT
Civil Twilight 5:35 AM EDT 8:26 PM EDT
Nautical Twilight 5:00 AM EDT 9:02 PM EDT
Astronomical Twilight 4:23 AM EDT 9:39 PM EDT
Moon 2:22 AM EDT 1:54 PM EDT
Length of Visible Light 14h 51m
Length of Day
13h 53m
Last Quarter, 37% of the Moon is Illuminated
May 3
Last Quarter
May 9
New
May 18
First Quarter
May 25
Full
May 31
Last Quarter

Hourly Weather History & Observations

Time (EDT) Temp. Windchill Dew Point Humidity Pressure Visibility Wind Dir Wind Speed Gust Speed Precip Events Conditions
12:05 AM 46.4 °F - 42.8 °F 87% 30.33 in 10.0 mi Calm Calm - N/A   Clear
12:25 AM 44.6 °F - 42.8 °F 93% 30.32 in 10.0 mi Calm Calm - N/A   Clear
12:46 AM 44.6 °F - 42.8 °F 93% 30.31 in 10.0 mi Calm Calm - N/A   Clear
1:06 AM 44.6 °F - 41.0 °F 87% 30.31 in 10.0 mi Calm Calm - N/A   Clear
1:26 AM 44.6 °F - 42.8 °F 93% 30.31 in 10.0 mi Calm Calm - N/A   Clear
1:46 AM 42.8 °F - 41.0 °F 93% 30.31 in 7.0 mi Calm Calm - N/A   Clear
2:06 AM 42.8 °F - 41.0 °F 93% 30.31 in 10.0 mi Calm Calm - N/A   Clear
2:26 AM 46.4 °F 45.2 °F 44.6 °F 93% 30.31 in 10.0 mi NE 3.5 mph - N/A   Clear
2:46 AM 46.4 °F 42.9 °F 44.6 °F 93% 30.31 in 10.0 mi NE 6.9 mph - N/A   Clear
3:06 AM 46.4 °F 45.2 °F 42.8 °F 87% 30.31 in 10.0 mi NE 3.5 mph - N/A   Clear
3:26 AM 46.4 °F 45.2 °F 42.8 °F 87% 30.31 in 10.0 mi NE 3.5 mph - N/A   Clear
3:46 AM 46.4 °F 44.3 °F 42.8 °F 87% 30.32 in 10.0 mi ENE 4.6 mph - N/A   Clear
4:06 AM 46.4 °F 44.3 °F 42.8 °F 87% 30.32 in 10.0 mi ENE 4.6 mph - N/A   Clear
4:26 AM 46.4 °F 45.2 °F 42.8 °F 87% 30.32 in 10.0 mi NE 3.5 mph - N/A   Clear
5:06 AM 46.4 °F 43.5 °F 44.6 °F 93% 30.32 in 10.0 mi ENE 5.8 mph - N/A   Clear
5:26 AM 50.0 °F - 46.4 °F 87% 30.32 in 10.0 mi ENE 6.9 mph - N/A   Clear
5:46 AM 50.0 °F - 44.6 °F 82% 30.33 in 10.0 mi ENE 9.2 mph - N/A   Clear
6:06 AM 50.0 °F - 42.8 °F 76% 30.33 in 10.0 mi ENE 9.2 mph - N/A   Scattered Clouds
6:26 AM 50.0 °F - 42.8 °F 76% 30.34 in 10.0 mi ENE 8.1 mph - N/A   Scattered Clouds
6:46 AM 50.0 °F - 42.8 °F 76% 30.34 in 10.0 mi ENE 5.8 mph - N/A   Clear
7:06 AM 50.0 °F - 42.8 °F 76% 30.35 in 10.0 mi ENE 5.8 mph - N/A   Clear
7:26 AM 50.0 °F - 42.8 °F 76% 30.35 in 10.0 mi ENE 6.9 mph - N/A   Clear
7:46 AM 51.8 °F - 42.8 °F 71% 30.35 in 10.0 mi East 5.8 mph - N/A   Clear
8:06 AM 51.8 °F - 42.8 °F 71% 30.35 in 10.0 mi ENE 5.8 mph - N/A   Clear
8:26 AM 53.6 °F - 42.8 °F 67% 30.36 in 10.0 mi ENE 9.2 mph - N/A   Clear
8:46 AM 55.4 °F - 42.8 °F 63% 30.36 in 10.0 mi East 8.1 mph 16.1 mph N/A   Clear
9:06 AM 55.4 °F - 41.0 °F 58% 30.36 in 10.0 mi East 12.7 mph 24.2 mph N/A   Clear
9:27 AM 57.2 °F - 41.0 °F 55% 30.36 in 10.0 mi East 10.4 mph 17.3 mph N/A   Clear
10:27 AM 59.0 °F - 39.2 °F 48% 30.37 in 10.0 mi East 13.8 mph - N/A   Scattered Clouds
12:47 PM 59.0 °F - 39.2 °F 48% 30.37 in 10.0 mi East 9.2 mph 19.6 mph N/A   Clear
1:07 PM 59.0 °F - 37.4 °F 45% 30.37 in 10.0 mi East 15.0 mph 19.6 mph N/A   Clear
1:27 PM 59.0 °F - 37.4 °F 45% 30.37 in 10.0 mi East 16.1 mph 20.7 mph N/A   Clear
1:47 PM 59.0 °F - 37.4 °F 45% 30.37 in 10.0 mi East 18.4 mph 21.9 mph N/A   Clear
2:07 PM 59.0 °F - 35.6 °F 42% 30.37 in 10.0 mi ESE 13.8 mph 26.5 mph N/A   Clear
2:27 PM 59.0 °F - 41.0 °F 51% 30.37 in 10.0 mi East 12.7 mph 21.9 mph N/A   Clear
2:47 PM 57.2 °F - 37.4 °F 48% 30.37 in 10.0 mi East 15.0 mph 19.6 mph N/A   Clear
3:07 PM 57.2 °F - 37.4 °F 48% 30.37 in 10.0 mi East 13.8 mph 20.7 mph N/A   Clear
3:27 PM 57.2 °F - 37.4 °F 48% 30.37 in 10.0 mi East 15.0 mph 18.4 mph N/A   Clear
3:47 PM 59.0 °F - 41.0 °F 51% 30.36 in 10.0 mi East 9.2 mph 19.6 mph N/A   Clear
4:07 PM 57.2 °F - 37.4 °F 48% 30.36 in 10.0 mi ENE 11.5 mph 18.4 mph N/A   Clear
4:27 PM 55.4 °F - 37.4 °F 51% 30.35 in 10.0 mi East 11.5 mph 17.3 mph N/A   Clear
4:47 PM 55.4 °F - 39.2 °F 54% 30.35 in 10.0 mi ENE 10.4 mph 20.7 mph N/A   Scattered Clouds
5:27 PM 55.4 °F - 39.2 °F 54% 30.35 in 10.0 mi East 12.7 mph 23.0 mph N/A   Scattered Clouds
5:47 PM 55.4 °F - 39.2 °F 54% 30.35 in 10.0 mi East 9.2 mph 19.6 mph N/A   Scattered Clouds
6:08 PM 53.6 °F - 37.4 °F 54% 30.35 in 10.0 mi East 10.4 mph - N/A   Clear
6:28 PM 53.6 °F - 37.4 °F 54% 30.34 in 10.0 mi East 9.2 mph - N/A   Scattered Clouds
6:48 PM 53.6 °F - 41.0 °F 62% 30.35 in 10.0 mi East 8.1 mph - N/A   Scattered Clouds
7:08 PM 51.8 °F - 37.4 °F 58% 30.35 in 10.0 mi ENE 8.1 mph - N/A   Scattered Clouds
7:28 PM 51.8 °F - 39.2 °F 62% 30.36 in 10.0 mi ENE 8.1 mph - N/A   Scattered Clouds
7:48 PM 50.0 °F - 37.4 °F 62% 30.36 in 10.0 mi ENE 4.6 mph - N/A   Clear
8:08 PM 50.0 °F - 39.2 °F 66% 30.35 in 10.0 mi East 4.6 mph - N/A   Clear
8:28 PM 50.0 °F - 39.2 °F 66% 30.35 in 10.0 mi ENE 3.5 mph - N/A   Clear
8:48 PM 48.2 °F - 39.2 °F 71% 30.35 in 10.0 mi ENE 4.6 mph - N/A   Clear
9:08 PM 46.4 °F 44.3 °F 39.2 °F 76% 30.36 in 10.0 mi ENE 4.6 mph - N/A   Clear
9:28 PM 46.4 °F 44.3 °F 39.2 °F 76% 30.36 in 10.0 mi ENE 4.6 mph - N/A   Scattered Clouds
9:48 PM 46.4 °F 43.5 °F 39.2 °F 76% 30.36 in 10.0 mi ENE 5.8 mph - N/A   Mostly Cloudy
10:08 PM 50.0 °F - 41.0 °F 71% 30.35 in 10.0 mi East 4.6 mph - N/A   Mostly Cloudy
10:28 PM 50.0 °F - 41.0 °F 71% 30.35 in 10.0 mi East 5.8 mph - N/A   Mostly Cloudy
10:48 PM 50.0 °F - 41.0 °F 71% 30.34 in 10.0 mi East 5.8 mph - N/A   Mostly Cloudy
11:08 PM 50.0 °F - 41.0 °F 71% 30.34 in 10.0 mi East 6.9 mph 16.1 mph N/A   Mostly Cloudy
11:28 PM 50.0 °F - 41.0 °F 71% 30.34 in 10.0 mi East 4.6 mph - N/A   Overcast
11:48 PM 50.0 °F - 41.0 °F 71% 30.34 in 10.0 mi Calm Calm - N/A   Overcast